WXM80 ListenWXM80 Stop

You find our weather info also at:

UK Metoffice

WeatherCloud

Weather Underground

Northeastern Weather Network

AWEKAS

Citizen Weather Observer Program (CWOP)

HAMweather, WeatherForYou, PWS Weather


Weather Underground History page Text

Daily Summary for October 2, 2017 Units:  Both    English   Metric
« Previous Day
Next Day »
Daily Weekly Monthly Yearly Custom
  High: Low: Average:
Temperature: 73.8 °F /  23.2 °C 48.3 °F /  9.1 °C 59.4 °F /  15.2 °C
Dew Point: 54.1 °F /  12.3 °C 45.8 °F /  7.7 °C 50 °F /  10 °C
Humidity: 97 % 43 % 73 %
Wind Speed: 5.5 mph /  8.9 km/h - 0.8 mph /  1.3 km/h
Wind Gust: 8.1 mph /  13 km/h - -
Wind:- - ESE
Pressure: 30.38 in /  1028.7 hPa 30.17 in /  1021.6 hPa -
Precipitation: 0.00 in /  0 mm    
Historical Graphs
 
 
Tabular Data for October 2, 2017
Time Temperature Dew Point Pressure Wind Wind Speed Wind Gust Humidity Rainfall Rate (Hourly)
00:01 49.6 °F /  9.8 °C 46.2 °F /  7.9 °C 30.17 in /  1021.6 hPa Calm     88 % 0.00 in /  0 mm
00:06 49.5 °F /  9.7 °C 46.1 °F /  7.8 °C 30.17 in /  1021.6 hPa West 0.5 mph /  0.8 km/h 1.2 mph /  1.9 km/h 88 % 0.00 in /  0 mm
00:11 49.5 °F /  9.7 °C 46.4 °F /  8 °C 30.17 in /  1021.6 hPa Calm     89 % 0.00 in /  0 mm
00:16 49.4 °F /  9.7 °C 46.3 °F /  7.9 °C 30.17 in /  1021.6 hPa West 0.5 mph /  0.8 km/h 2.3 mph /  3.7 km/h 89 % 0.00 in /  0 mm
00:21 49.3 °F /  9.6 °C 46.2 °F /  7.9 °C 30.17 in /  1021.6 hPa Calm     89 % 0.00 in /  0 mm
00:26 49.3 °F /  9.6 °C 46.2 °F /  7.9 °C 30.17 in /  1021.6 hPa Calm     89 % 0.00 in /  0 mm
00:31 49.2 °F /  9.6 °C 46.4 °F /  8 °C 30.17 in /  1021.6 hPa West 0.4 mph /  0.6 km/h 1.2 mph /  1.9 km/h 90 % 0.00 in /  0 mm
00:36 49.2 °F /  9.6 °C 46.4 °F /  8 °C 30.17 in /  1021.6 hPa Calm     90 % 0.00 in /  0 mm
00:41 49.2 °F /  9.6 °C 46.4 °F /  8 °C 30.17 in /  1021.6 hPa West 0.4 mph /  0.6 km/h 1.2 mph /  1.9 km/h 90 % 0.00 in /  0 mm
00:46 49.1 °F /  9.5 °C 46.3 °F /  7.9 °C 30.17 in /  1021.6 hPa Calm     90 % 0.00 in /  0 mm
00:51 49.1 °F /  9.5 °C 46.6 °F /  8.1 °C 30.17 in /  1021.6 hPa Calm     91 % 0.00 in /  0 mm
00:56 49.0 °F /  9.4 °C 46.5 °F /  8.1 °C 30.17 in /  1021.6 hPa Calm     91 % 0.00 in /  0 mm
01:01 49.0 °F /  9.4 °C 46.5 °F /  8.1 °C 30.17 in /  1021.6 hPa Calm     91 % 0.00 in /  0 mm
01:06 49.0 °F /  9.4 °C 46.2 °F /  7.9 °C 30.17 in /  1021.6 hPa Calm     90 % 0.00 in /  0 mm
01:11 49.0 °F /  9.4 °C 46.2 °F /  7.9 °C 30.17 in /  1021.6 hPa Calm     90 % 0.00 in /  0 mm
01:16 48.9 °F /  9.4 °C 46.1 °F /  7.8 °C 30.17 in /  1021.6 hPa Calm     90 % 0.00 in /  0 mm
01:21 48.8 °F /  9.3 °C 46.0 °F /  7.8 °C 30.17 in /  1021.6 hPa Calm     90 % 0.00 in /  0 mm
01:26 48.8 °F /  9.3 °C 46.0 °F /  7.8 °C 30.17 in /  1021.6 hPa Calm     90 % 0.00 in /  0 mm
01:31 48.7 °F /  9.3 °C 45.9 °F /  7.7 °C 30.17 in /  1021.6 hPa Calm     90 % 0.00 in /  0 mm
01:36 48.6 °F /  9.2 °C 45.8 °F /  7.7 °C 30.17 in /  1021.6 hPa Calm     90 % 0.00 in /  0 mm
01:41 48.6 °F /  9.2 °C 46.1 °F /  7.8 °C 30.17 in /  1021.6 hPa Calm     91 % 0.00 in /  0 mm
01:46 48.5 °F /  9.2 °C 46.0 °F /  7.8 °C 30.17 in /  1021.6 hPa Calm     91 % 0.00 in /  0 mm
01:51 48.5 °F /  9.2 °C 46.0 °F /  7.8 °C 30.17 in /  1021.6 hPa Calm     91 % 0.00 in /  0 mm
01:56 48.5 °F /  9.2 °C 46.0 °F /  7.8 °C 30.17 in /  1021.6 hPa Calm     91 % 0.00 in /  0 mm
02:02 48.4 °F /  9.1 °C 45.9 °F /  7.7 °C 30.17 in /  1021.6 hPa Calm     91 % 0.00 in /  0 mm
02:07 48.4 °F /  9.1 °C 45.9 °F /  7.7 °C 30.17 in /  1021.6 hPa Calm     91 % 0.00 in /  0 mm
02:12 48.3 °F /  9.1 °C 46.1 °F /  7.8 °C 30.17 in /  1021.6 hPa Calm     92 % 0.00 in /  0 mm
02:17 48.3 °F /  9.1 °C 46.1 °F /  7.8 °C 30.17 in /  1021.6 hPa Calm     92 % 0.00 in /  0 mm
02:22 48.3 °F /  9.1 °C 46.1 °F /  7.8 °C 30.18 in /  1021.9 hPa Calm     92 % 0.00 in /  0 mm
02:27 48.3 °F /  9.1 °C 46.1 °F /  7.8 °C 30.17 in /  1021.6 hPa West 0.8 mph /  1.3 km/h 2.3 mph /  3.7 km/h 92 % 0.00 in /  0 mm
02:32 48.3 °F /  9.1 °C 46.4 °F /  8 °C 30.17 in /  1021.6 hPa West 0.5 mph /  0.8 km/h 1.2 mph /  1.9 km/h 93 % 0.00 in /  0 mm
02:37 48.3 °F /  9.1 °C 46.4 °F /  8 °C 30.17 in /  1021.6 hPa Calm     93 % 0.00 in /  0 mm
02:42 48.3 °F /  9.1 °C 46.4 °F /  8 °C 30.17 in /  1021.6 hPa West 0.4 mph /  0.6 km/h 1.2 mph /  1.9 km/h 93 % 0.00 in /  0 mm
02:47 48.3 °F /  9.1 °C 46.4 °F /  8 °C 30.18 in /  1021.9 hPa Calm     93 % 0.00 in /  0 mm
02:52 48.3 °F /  9.1 °C 46.4 °F /  8 °C 30.17 in /  1021.6 hPa Calm     93 % 0.00 in /  0 mm
02:57 48.4 °F /  9.1 °C 46.8 °F /  8.2 °C 30.18 in /  1021.9 hPa Calm     94 % 0.00 in /  0 mm
03:02 48.4 °F /  9.1 °C 46.8 °F /  8.2 °C 30.17 in /  1021.6 hPa Calm     94 % 0.00 in /  0 mm
03:07 48.5 °F /  9.2 °C 46.9 °F /  8.3 °C 30.17 in /  1021.6 hPa Calm     94 % 0.00 in /  0 mm
03:12 48.6 °F /  9.2 °C 47.0 °F /  8.3 °C 30.17 in /  1021.6 hPa Calm     94 % 0.00 in /  0 mm
03:17 48.6 °F /  9.2 °C 47.0 °F /  8.3 °C 30.17 in /  1021.6 hPa Calm     94 % 0.00 in /  0 mm
03:22 48.7 °F /  9.3 °C 47.1 °F /  8.4 °C 30.17 in /  1021.6 hPa Calm     94 % 0.00 in /  0 mm
03:27 48.8 °F /  9.3 °C 47.2 °F /  8.4 °C 30.17 in /  1021.6 hPa Calm     94 % 0.00 in /  0 mm
03:32 48.8 °F /  9.3 °C 47.2 °F /  8.4 °C 30.17 in /  1021.6 hPa Calm     94 % 0.00 in /  0 mm
03:37 48.8 °F /  9.3 °C 47.2 °F /  8.4 °C 30.17 in /  1021.6 hPa Calm     94 % 0.00 in /  0 mm
03:42 48.8 °F /  9.3 °C 47.2 °F /  8.4 °C 30.17 in /  1021.6 hPa Calm     94 % 0.00 in /  0 mm
03:47 48.8 °F /  9.3 °C 47.2 °F /  8.4 °C 30.17 in /  1021.6 hPa Calm     94 % 0.00 in /  0 mm
03:48 48.8 °F /  9.3 °C 47.2 °F /  8.4 °C 30.17 in /  1021.6 hPa Calm     94 % 0.00 in /  0 mm
03:53 48.8 °F /  9.3 °C 47.2 °F /  8.4 °C 30.18 in /  1021.9 hPa West 0.4 mph /  0.6 km/h 1.2 mph /  1.9 km/h 94 % 0.00 in /  0 mm
03:58 48.7 °F /  9.3 °C 47.1 °F /  8.4 °C 30.18 in /  1021.9 hPa West 0.5 mph /  0.8 km/h 1.2 mph /  1.9 km/h 94 % 0.00 in /  0 mm
04:03 48.7 °F /  9.3 °C 47.1 °F /  8.4 °C 30.18 in /  1021.9 hPa West 0.7 mph /  1.1 km/h 2.3 mph /  3.7 km/h 94 % 0.00 in /  0 mm
04:08 48.7 °F /  9.3 °C 47.1 °F /  8.4 °C 30.18 in /  1021.9 hPa West 0.1 mph /  0.2 km/h 1.2 mph /  1.9 km/h 94 % 0.00 in /  0 mm
04:13 48.7 °F /  9.3 °C 47.1 °F /  8.4 °C 30.18 in /  1021.9 hPa Calm     94 % 0.00 in /  0 mm
04:18 48.7 °F /  9.3 °C 47.3 °F /  8.5 °C 30.18 in /  1021.9 hPa Calm     95 % 0.00 in /  0 mm
04:23 48.7 °F /  9.3 °C 47.3 °F /  8.5 °C 30.19 in /  1022.2 hPa NNE 0.8 mph /  1.3 km/h 3.5 mph /  5.6 km/h 95 % 0.00 in /  0 mm
04:28 48.8 °F /  9.3 °C 47.4 °F /  8.6 °C 30.18 in /  1021.9 hPa North 0.1 mph /  0.2 km/h 1.2 mph /  1.9 km/h 95 % 0.00 in /  0 mm
04:33 49.1 °F /  9.5 °C 47.7 °F /  8.7 °C 30.19 in /  1022.2 hPa North 1.2 mph /  1.9 km/h 3.5 mph /  5.6 km/h 95 % 0.00 in /  0 mm
04:38 49.6 °F /  9.8 °C 48.5 °F /  9.2 °C 30.19 in /  1022.2 hPa Calm   1.2 mph /  1.9 km/h 96 % 0.00 in /  0 mm
04:43 50.1 °F /  10.1 °C 49.0 °F /  9.4 °C 30.18 in /  1021.9 hPa North 2.5 mph /  4 km/h 5.8 mph /  9.3 km/h 96 % 0.00 in /  0 mm
04:48 50.5 °F /  10.3 °C 49.4 °F /  9.7 °C 30.19 in /  1022.2 hPa North 0.5 mph /  0.8 km/h 3.5 mph /  5.6 km/h 96 % 0.00 in /  0 mm
04:53 50.8 °F /  10.4 °C 50.0 °F /  10 °C 30.19 in /  1022.2 hPa NE 0.2 mph /  0.3 km/h 3.0 mph /  4.8 km/h 97 % 0.00 in /  0 mm
04:58 51.1 °F /  10.6 °C 50.0 °F /  10 °C 30.19 in /  1022.2 hPa WNW 2.1 mph /  3.4 km/h 4.6 mph /  7.4 km/h 96 % 0.00 in /  0 mm
05:08 51.7 °F /  10.9 °C 50.6 °F /  10.3 °C 30.19 in /  1022.2 hPa North 1.5 mph /  2.4 km/h 3.5 mph /  5.6 km/h 96 % 0.00 in /  0 mm
05:13 51.9 °F /  11.1 °C 50.8 °F /  10.4 °C 30.19 in /  1022.2 hPa NNE 4.8 mph /  7.7 km/h 6.0 mph /  9.7 km/h 96 % 0.00 in /  0 mm
05:18 52.3 °F /  11.3 °C 51.2 °F /  10.7 °C 30.19 in /  1022.2 hPa North 1.4 mph /  2.3 km/h 4.6 mph /  7.4 km/h 96 % 0.00 in /  0 mm
05:23 52.8 °F /  11.6 °C 51.1 °F /  10.6 °C 30.19 in /  1022.2 hPa NNE 4.9 mph /  7.9 km/h 8.1 mph /  13 km/h 94 % 0.00 in /  0 mm
05:28 53.3 °F /  11.8 °C 51.0 °F /  10.6 °C 30.19 in /  1022.2 hPa North 5.5 mph /  8.9 km/h 8.1 mph /  13 km/h 92 % 0.00 in /  0 mm
05:33 53.8 °F /  12.1 °C 50.6 °F /  10.3 °C 30.20 in /  1022.6 hPa NNW 4.4 mph /  7.1 km/h 5.8 mph /  9.3 km/h 89 % 0.00 in /  0 mm
05:38 54.2 °F /  12.3 °C 50.7 °F /  10.4 °C 30.20 in /  1022.6 hPa NNE 3.6 mph /  5.8 km/h 8.0 mph /  12.9 km/h 88 % 0.00 in /  0 mm
05:43 54.5 °F /  12.5 °C 50.4 °F /  10.2 °C 30.20 in /  1022.6 hPa NNE 3.2 mph /  5.1 km/h 6.0 mph /  9.7 km/h 86 % 0.00 in /  0 mm
05:48 54.7 °F /  12.6 °C 50.3 °F /  10.2 °C 30.20 in /  1022.6 hPa North 3.1 mph /  5 km/h 4.6 mph /  7.4 km/h 85 % 0.00 in /  0 mm
05:53 54.9 °F /  12.7 °C 50.5 °F /  10.3 °C 30.20 in /  1022.6 hPa NNW 2.1 mph /  3.4 km/h 3.0 mph /  4.8 km/h 85 % 0.00 in /  0 mm
05:58 55.0 °F /  12.8 °C 50.3 °F /  10.2 °C 30.21 in /  1022.9 hPa NNE 1.7 mph /  2.7 km/h 2.3 mph /  3.7 km/h 84 % 0.00 in /  0 mm
06:03 55.1 °F /  12.8 °C 50.0 °F /  10 °C 30.21 in /  1022.9 hPa North 0.2 mph /  0.3 km/h 1.2 mph /  1.9 km/h 83 % 0.00 in /  0 mm
06:09 55.1 °F /  12.8 °C 50.0 °F /  10 °C 30.21 in /  1022.9 hPa NNE 2.6 mph /  4.2 km/h 5.8 mph /  9.3 km/h 83 % 0.00 in /  0 mm
06:14 55.0 °F /  12.8 °C 49.9 °F /  9.9 °C 30.21 in /  1022.9 hPa NE 2.1 mph /  3.4 km/h 4.0 mph /  6.4 km/h 83 % 0.00 in /  0 mm
06:19 54.9 °F /  12.7 °C 49.2 °F /  9.6 °C 30.21 in /  1022.9 hPa North 1.2 mph /  1.9 km/h 3.5 mph /  5.6 km/h 81 % 0.00 in /  0 mm
06:24 54.8 °F /  12.7 °C 49.1 °F /  9.5 °C 30.22 in /  1023.2 hPa Calm   1.2 mph /  1.9 km/h 81 % 0.00 in /  0 mm
06:29 54.7 °F /  12.6 °C 49.0 °F /  9.4 °C 30.22 in /  1023.2 hPa North 0.3 mph /  0.5 km/h 1.2 mph /  1.9 km/h 81 % 0.00 in /  0 mm
06:30 54.7 °F /  12.6 °C 49.0 °F /  9.4 °C 30.22 in /  1023.2 hPa North 0.3 mph /  0.5 km/h 1.2 mph /  1.9 km/h 81 % 0.00 in /  0 mm
06:35 54.6 °F /  12.6 °C 49.2 °F /  9.6 °C 30.22 in /  1023.2 hPa North 0.6 mph /  1 km/h 1.2 mph /  1.9 km/h 82 % 0.00 in /  0 mm
06:40 54.5 °F /  12.5 °C 49.1 °F /  9.5 °C 30.22 in /  1023.2 hPa Calm     82 % 0.00 in /  0 mm
06:45 54.4 °F /  12.4 °C 49.0 °F /  9.4 °C 30.23 in /  1023.6 hPa Calm     82 % 0.00 in /  0 mm
06:50 54.2 °F /  12.3 °C 48.8 °F /  9.3 °C 30.23 in /  1023.6 hPa Calm     82 % 0.00 in /  0 mm
06:55 54.0 °F /  12.2 °C 48.6 °F /  9.2 °C 30.23 in /  1023.6 hPa North 0.1 mph /  0.2 km/h   82 % 0.00 in /  0 mm
07:00 53.7 °F /  12.1 °C 48.7 °F /  9.3 °C 30.23 in /  1023.6 hPa Calm     83 % 0.00 in /  0 mm
07:05 53.6 °F /  12 °C 48.6 °F /  9.2 °C 30.23 in /  1023.6 hPa North 0.4 mph /  0.6 km/h 3.5 mph /  5.6 km/h 83 % 0.00 in /  0 mm
07:10 53.4 °F /  11.9 °C 48.7 °F /  9.3 °C 30.24 in /  1023.9 hPa NNW 3.5 mph /  5.6 km/h 5.0 mph /  8 km/h 84 % 0.00 in /  0 mm
07:15 53.3 °F /  11.8 °C 48.9 °F /  9.4 °C 30.24 in /  1023.9 hPa North 1.4 mph /  2.3 km/h 3.5 mph /  5.6 km/h 85 % 0.00 in /  0 mm
07:20 53.3 °F /  11.8 °C 48.9 °F /  9.4 °C 30.24 in /  1023.9 hPa NNW 1.5 mph /  2.4 km/h 3.5 mph /  5.6 km/h 85 % 0.00 in /  0 mm
07:25 53.3 °F /  11.8 °C 48.9 °F /  9.4 °C 30.25 in /  1024.3 hPa NNE 2.0 mph /  3.2 km/h 3.5 mph /  5.6 km/h 85 % 0.00 in /  0 mm
07:30 53.4 °F /  11.9 °C 49.3 °F /  9.6 °C 30.24 in /  1023.9 hPa North 1.8 mph /  2.9 km/h 3.5 mph /  5.6 km/h 86 % 0.00 in /  0 mm
07:35 53.5 °F /  11.9 °C 49.4 °F /  9.7 °C 30.24 in /  1023.9 hPa North 0.6 mph /  1 km/h 3.5 mph /  5.6 km/h 86 % 0.00 in /  0 mm
07:40 53.7 °F /  12.1 °C 49.6 °F /  9.8 °C 30.25 in /  1024.3 hPa NNE 2.1 mph /  3.4 km/h 3.5 mph /  5.6 km/h 86 % 0.00 in /  0 mm
07:45 53.9 °F /  12.2 °C 49.8 °F /  9.9 °C 30.25 in /  1024.3 hPa NNE 2.0 mph /  3.2 km/h 4.0 mph /  6.4 km/h 86 % 0.00 in /  0 mm
07:50 54.0 °F /  12.2 °C 50.2 °F /  10.1 °C 30.25 in /  1024.3 hPa Calm   2.3 mph /  3.7 km/h 87 % 0.00 in /  0 mm
07:55 54.1 °F /  12.3 °C 50.3 °F /  10.2 °C 30.25 in /  1024.3 hPa ENE 1.2 mph /  1.9 km/h 3.5 mph /  5.6 km/h 87 % 0.00 in /  0 mm
08:00 54.3 °F /  12.4 °C 49.9 °F /  9.9 °C 30.25 in /  1024.3 hPa North 1.8 mph /  2.9 km/h 6.0 mph /  9.7 km/h 85 % 0.00 in /  0 mm
08:05 54.5 °F /  12.5 °C 49.8 °F /  9.9 °C 30.25 in /  1024.3 hPa NE 2.1 mph /  3.4 km/h 3.5 mph /  5.6 km/h 84 % 0.00 in /  0 mm
08:10 54.8 °F /  12.7 °C 50.1 °F /  10.1 °C 30.25 in /  1024.3 hPa NE 1.1 mph /  1.8 km/h 2.3 mph /  3.7 km/h 84 % 0.00 in /  0 mm
08:15 55.1 °F /  12.8 °C 50.4 °F /  10.2 °C 30.25 in /  1024.3 hPa ENE 1.6 mph /  2.6 km/h 4.0 mph /  6.4 km/h 84 % 0.00 in /  0 mm
08:20 55.4 °F /  13 °C 50.3 °F /  10.2 °C 30.25 in /  1024.3 hPa ENE 1.3 mph /  2.1 km/h 3.5 mph /  5.6 km/h 83 % 0.00 in /  0 mm
08:25 55.8 °F /  13.2 °C 50.7 °F /  10.4 °C 30.26 in /  1024.6 hPa ENE 2.0 mph /  3.2 km/h 3.5 mph /  5.6 km/h 83 % 0.00 in /  0 mm
08:30 56.2 °F /  13.4 °C 51.1 °F /  10.6 °C 30.26 in /  1024.6 hPa ENE 2.6 mph /  4.2 km/h 4.6 mph /  7.4 km/h 83 % 0.00 in /  0 mm
08:35 56.5 °F /  13.6 °C 51.4 °F /  10.8 °C 30.26 in /  1024.6 hPa NE 2.4 mph /  3.9 km/h 3.5 mph /  5.6 km/h 83 % 0.00 in /  0 mm
08:40 56.8 °F /  13.8 °C 51.4 °F /  10.8 °C 30.26 in /  1024.6 hPa ENE 1.3 mph /  2.1 km/h 7.0 mph /  11.3 km/h 82 % 0.00 in /  0 mm
08:45 57.0 °F /  13.9 °C 51.2 °F /  10.7 °C 30.26 in /  1024.6 hPa NNE 1.6 mph /  2.6 km/h 3.5 mph /  5.6 km/h 81 % 0.00 in /  0 mm
08:50 57.2 °F /  14 °C 51.1 °F /  10.6 °C 30.26 in /  1024.6 hPa NNE 2.8 mph /  4.5 km/h 4.0 mph /  6.4 km/h 80 % 0.00 in /  0 mm
08:55 57.3 °F /  14.1 °C 51.2 °F /  10.7 °C 30.26 in /  1024.6 hPa North 2.1 mph /  3.4 km/h 3.5 mph /  5.6 km/h 80 % 0.00 in /  0 mm
09:00 57.4 °F /  14.1 °C 50.9 °F /  10.5 °C 30.26 in /  1024.6 hPa ENE 1.1 mph /  1.8 km/h 3.5 mph /  5.6 km/h 79 % 0.00 in /  0 mm
09:05 57.6 °F /  14.2 °C 51.5 °F /  10.8 °C 30.27 in /  1024.9 hPa ENE 2.9 mph /  4.7 km/h 3.5 mph /  5.6 km/h 80 % 0.00 in /  0 mm
09:10 57.7 °F /  14.3 °C 51.6 °F /  10.9 °C 30.27 in /  1024.9 hPa NE 0.8 mph /  1.3 km/h 3.5 mph /  5.6 km/h 80 % 0.00 in /  0 mm
09:15 57.7 °F /  14.3 °C 51.2 °F /  10.7 °C 30.27 in /  1024.9 hPa NE 2.2 mph /  3.5 km/h 3.5 mph /  5.6 km/h 79 % 0.00 in /  0 mm
09:20 57.8 °F /  14.3 °C 51.3 °F /  10.7 °C 30.27 in /  1024.9 hPa ENE 2.0 mph /  3.2 km/h 5.8 mph /  9.3 km/h 79 % 0.00 in /  0 mm
09:25 57.9 °F /  14.4 °C 51.4 °F /  10.8 °C 30.27 in /  1024.9 hPa NNE 1.7 mph /  2.7 km/h 3.5 mph /  5.6 km/h 79 % 0.00 in /  0 mm
09:30 57.9 °F /  14.4 °C 51.4 °F /  10.8 °C 30.28 in /  1025.3 hPa NNW 3.2 mph /  5.1 km/h 5.0 mph /  8 km/h 79 % 0.00 in /  0 mm
09:35 58.0 °F /  14.4 °C 51.2 °F /  10.7 °C 30.28 in /  1025.3 hPa NNE 3.0 mph /  4.8 km/h 4.6 mph /  7.4 km/h 78 % 0.00 in /  0 mm
09:37 58.0 °F /  14.4 °C 50.8 °F /  10.4 °C 30.28 in /  1025.3 hPa ENE 3.1 mph /  5 km/h 4.6 mph /  7.4 km/h 77 % 0.00 in /  0 mm
09:42 58.1 °F /  14.5 °C 51.3 °F /  10.7 °C 30.28 in /  1025.3 hPa East 2.4 mph /  3.9 km/h 5.0 mph /  8 km/h 78 % 0.00 in /  0 mm
09:47 58.2 °F /  14.6 °C 51.4 °F /  10.8 °C 30.28 in /  1025.3 hPa North 1.5 mph /  2.4 km/h 4.0 mph /  6.4 km/h 78 % 0.00 in /  0 mm
09:52 58.3 °F /  14.6 °C 51.1 °F /  10.6 °C 30.28 in /  1025.3 hPa NNE 2.8 mph /  4.5 km/h 5.8 mph /  9.3 km/h 77 % 0.00 in /  0 mm
09:57 58.4 °F /  14.7 °C 51.2 °F /  10.7 °C 30.28 in /  1025.3 hPa NE 1.8 mph /  2.9 km/h 3.5 mph /  5.6 km/h 77 % 0.00 in /  0 mm
10:02 58.5 °F /  14.7 °C 51.3 °F /  10.7 °C 30.29 in /  1025.6 hPa ENE 2.2 mph /  3.5 km/h 7.0 mph /  11.3 km/h 77 % 0.00 in /  0 mm
10:07 58.7 °F /  14.8 °C 51.5 °F /  10.8 °C 30.29 in /  1025.6 hPa NE 1.5 mph /  2.4 km/h 3.5 mph /  5.6 km/h 77 % 0.00 in /  0 mm
10:12 58.9 °F /  14.9 °C 51.7 °F /  10.9 °C 30.29 in /  1025.6 hPa ENE 1.1 mph /  1.8 km/h 6.9 mph /  11.1 km/h 77 % 0.00 in /  0 mm
10:17 59.2 °F /  15.1 °C 51.3 °F /  10.7 °C 30.29 in /  1025.6 hPa NE 2.0 mph /  3.2 km/h 5.8 mph /  9.3 km/h 75 % 0.00 in /  0 mm
10:22 59.7 °F /  15.4 °C 51.0 °F /  10.6 °C 30.29 in /  1025.6 hPa NE 2.0 mph /  3.2 km/h 4.6 mph /  7.4 km/h 73 % 0.00 in /  0 mm
10:27 60.2 °F /  15.7 °C 50.8 °F /  10.4 °C 30.29 in /  1025.6 hPa NE 1.5 mph /  2.4 km/h 6.9 mph /  11.1 km/h 71 % 0.00 in /  0 mm
10:32 60.5 °F /  15.8 °C 50.7 °F /  10.4 °C 30.29 in /  1025.6 hPa NE 2.7 mph /  4.3 km/h 3.5 mph /  5.6 km/h 70 % 0.00 in /  0 mm
10:37 60.8 °F /  16 °C 50.6 °F /  10.3 °C 30.29 in /  1025.6 hPa NE 3.2 mph /  5.1 km/h 4.0 mph /  6.4 km/h 69 % 0.00 in /  0 mm
10:42 60.9 °F /  16.1 °C 50.3 °F /  10.2 °C 30.29 in /  1025.6 hPa ENE 3.2 mph /  5.1 km/h 5.8 mph /  9.3 km/h 68 % 0.00 in /  0 mm
10:48 61.1 °F /  16.2 °C 50.8 °F /  10.4 °C 30.29 in /  1025.6 hPa ENE 2.1 mph /  3.4 km/h 3.0 mph /  4.8 km/h 69 % 0.00 in /  0 mm
10:49 61.1 °F /  16.2 °C 50.5 °F /  10.3 °C 30.29 in /  1025.6 hPa ENE 1.7 mph /  2.7 km/h 4.0 mph /  6.4 km/h 68 % 0.00 in /  0 mm
10:54 61.3 °F /  16.3 °C 51.0 °F /  10.6 °C 30.29 in /  1025.6 hPa ENE 0.4 mph /  0.6 km/h 1.2 mph /  1.9 km/h 69 % 0.00 in /  0 mm
10:56 61.4 °F /  16.3 °C 50.3 °F /  10.2 °C 30.29 in /  1025.6 hPa NE 1.7 mph /  2.7 km/h 3.5 mph /  5.6 km/h 67 % 0.00 in /  0 mm
11:01 61.9 °F /  16.6 °C 51.2 °F /  10.7 °C 30.29 in /  1025.6 hPa ENE 1.2 mph /  1.9 km/h 2.3 mph /  3.7 km/h 68 % 0.00 in /  0 mm
11:06 62.6 °F /  17 °C 51.9 °F /  11.1 °C 30.29 in /  1025.6 hPa NNE 1.0 mph /  1.6 km/h 3.5 mph /  5.6 km/h 68 % 0.00 in /  0 mm
11:11 63.6 °F /  17.6 °C 52.0 °F /  11.1 °C 30.29 in /  1025.6 hPa NNE 0.6 mph /  1 km/h 4.6 mph /  7.4 km/h 66 % 0.00 in /  0 mm
11:16 64.7 °F /  18.2 °C 51.4 °F /  10.8 °C 30.29 in /  1025.6 hPa NE 0.3 mph /  0.5 km/h 1.2 mph /  1.9 km/h 62 % 0.00 in /  0 mm
11:22 65.8 °F /  18.8 °C 51.5 °F /  10.8 °C 30.29 in /  1025.6 hPa NNE 3.1 mph /  5 km/h 4.6 mph /  7.4 km/h 60 % 0.00 in /  0 mm
11:27 66.7 °F /  19.3 °C 54.1 °F /  12.3 °C 30.29 in /  1025.6 hPa Calm   1.2 mph /  1.9 km/h 64 % 0.00 in /  0 mm
11:32 67.6 °F /  19.8 °C 51.8 °F /  11 °C 30.28 in /  1025.3 hPa NE 1.4 mph /  2.3 km/h 6.9 mph /  11.1 km/h 57 % 0.00 in /  0 mm
11:37 68.6 °F /  20.3 °C 53.2 °F /  11.8 °C 30.28 in /  1025.3 hPa NNW 1.0 mph /  1.6 km/h 3.5 mph /  5.6 km/h 58 % 0.00 in /  0 mm
11:42 69.1 °F /  20.6 °C 52.7 °F /  11.5 °C 30.28 in /  1025.3 hPa North 3.6 mph /  5.8 km/h 6.9 mph /  11.1 km/h 56 % 0.00 in /  0 mm
11:47 69.8 °F /  21 °C 53.9 °F /  12.2 °C 30.28 in /  1025.3 hPa NE 0.1 mph /  0.2 km/h 1.2 mph /  1.9 km/h 57 % 0.00 in /  0 mm
11:52 70.2 °F /  21.2 °C 52.3 °F /  11.3 °C 30.28 in /  1025.3 hPa North 3.0 mph /  4.8 km/h 3.5 mph /  5.6 km/h 53 % 0.00 in /  0 mm
11:57 70.4 °F /  21.3 °C 53.0 °F /  11.7 °C 30.28 in /  1025.3 hPa NNW 2.0 mph /  3.2 km/h 3.5 mph /  5.6 km/h 54 % 0.00 in /  0 mm
12:02 70.5 °F /  21.4 °C 51.0 °F /  10.6 °C 30.28 in /  1025.3 hPa NE 0.1 mph /  0.2 km/h 4.6 mph /  7.4 km/h 50 % 0.00 in /  0 mm
12:07 70.5 °F /  21.4 °C 52.0 °F /  11.1 °C 30.28 in /  1025.3 hPa Calm   4.6 mph /  7.4 km/h 52 % 0.00 in /  0 mm
12:12 70.7 °F /  21.5 °C 51.7 °F /  10.9 °C 30.28 in /  1025.3 hPa East 0.3 mph /  0.5 km/h 1.2 mph /  1.9 km/h 51 % 0.00 in /  0 mm
12:17 71.1 °F /  21.7 °C 54.1 °F /  12.3 °C 30.28 in /  1025.3 hPa NE 1.1 mph /  1.8 km/h 3.0 mph /  4.8 km/h 55 % 0.00 in /  0 mm
12:22 71.6 °F /  22 °C 53.6 °F /  12 °C 30.28 in /  1025.3 hPa NNE 1.0 mph /  1.6 km/h 3.5 mph /  5.6 km/h 53 % 0.00 in /  0 mm
12:27 71.7 °F /  22.1 °C 53.7 °F /  12.1 °C 30.28 in /  1025.3 hPa NNE 0.3 mph /  0.5 km/h 2.3 mph /  3.7 km/h 53 % 0.00 in /  0 mm
12:32 71.7 °F /  22.1 °C 53.1 °F /  11.7 °C 30.28 in /  1025.3 hPa NNE 1.1 mph /  1.8 km/h 2.3 mph /  3.7 km/h 52 % 0.00 in /  0 mm
12:37 71.7 °F /  22.1 °C 52.1 °F /  11.2 °C 30.28 in /  1025.3 hPa North 1.3 mph /  2.1 km/h 4.0 mph /  6.4 km/h 50 % 0.00 in /  0 mm
12:42 71.8 °F /  22.1 °C 53.2 °F /  11.8 °C 30.28 in /  1025.3 hPa Calm   1.2 mph /  1.9 km/h 52 % 0.00 in /  0 mm
12:47 71.9 °F /  22.2 °C 53.3 °F /  11.8 °C 30.28 in /  1025.3 hPa NNE 0.2 mph /  0.3 km/h 3.5 mph /  5.6 km/h 52 % 0.00 in /  0 mm
12:52 72.0 °F /  22.2 °C 51.2 °F /  10.7 °C 30.28 in /  1025.3 hPa NE 0.2 mph /  0.3 km/h 2.3 mph /  3.7 km/h 48 % 0.00 in /  0 mm
12:57 72.1 °F /  22.3 °C 53.5 °F /  11.9 °C 30.27 in /  1024.9 hPa Calm     52 % 0.00 in /  0 mm
13:02 72.2 °F /  22.3 °C 53.1 °F /  11.7 °C 30.27 in /  1024.9 hPa NE 0.9 mph /  1.4 km/h 2.3 mph /  3.7 km/h 51 % 0.00 in /  0 mm
13:07 72.4 °F /  22.4 °C 53.8 °F /  12.1 °C 30.27 in /  1024.9 hPa NE 0.8 mph /  1.3 km/h 2.3 mph /  3.7 km/h 52 % 0.00 in /  0 mm
13:12 72.7 °F /  22.6 °C 52.4 °F /  11.3 °C 30.27 in /  1024.9 hPa Calm     49 % 0.00 in /  0 mm
13:17 73.0 °F /  22.8 °C 53.3 °F /  11.8 °C 30.27 in /  1024.9 hPa NE 0.2 mph /  0.3 km/h 2.3 mph /  3.7 km/h 50 % 0.00 in /  0 mm
13:23 73.3 °F /  22.9 °C 53.5 °F /  11.9 °C 30.26 in /  1024.6 hPa NNE 0.1 mph /  0.2 km/h 2.3 mph /  3.7 km/h 50 % 0.00 in /  0 mm
13:28 73.4 °F /  23 °C 51.4 °F /  10.8 °C 30.26 in /  1024.6 hPa NNE 0.9 mph /  1.4 km/h 3.5 mph /  5.6 km/h 46 % 0.00 in /  0 mm
13:33 73.3 °F /  22.9 °C 49.4 °F /  9.7 °C 30.26 in /  1024.6 hPa North 2.2 mph /  3.5 km/h 4.6 mph /  7.4 km/h 43 % 0.00 in /  0 mm
13:38 73.3 °F /  22.9 °C 50.1 °F /  10.1 °C 30.26 in /  1024.6 hPa NNE 0.4 mph /  0.6 km/h 3.5 mph /  5.6 km/h 44 % 0.00 in /  0 mm
13:43 73.4 °F /  23 °C 51.9 °F /  11.1 °C 30.26 in /  1024.6 hPa NE 1.4 mph /  2.3 km/h 3.5 mph /  5.6 km/h 47 % 0.00 in /  0 mm
13:48 73.6 °F /  23.1 °C 49.7 °F /  9.8 °C 30.26 in /  1024.6 hPa NNE 2.1 mph /  3.4 km/h 4.6 mph /  7.4 km/h 43 % 0.00 in /  0 mm
13:53 73.7 °F /  23.2 °C 51.6 °F /  10.9 °C 30.25 in /  1024.3 hPa ENE 0.5 mph /  0.8 km/h 3.5 mph /  5.6 km/h 46 % 0.00 in /  0 mm
13:58 73.8 °F /  23.2 °C 51.1 °F /  10.6 °C 30.25 in /  1024.3 hPa NE 0.5 mph /  0.8 km/h 2.3 mph /  3.7 km/h 45 % 0.00 in /  0 mm
14:03 73.8 °F /  23.2 °C 51.1 °F /  10.6 °C 30.25 in /  1024.3 hPa NNE 1.5 mph /  2.4 km/h 5.0 mph /  8 km/h 45 % 0.00 in /  0 mm
14:08 73.7 °F /  23.2 °C 49.8 °F /  9.9 °C 30.25 in /  1024.3 hPa NE 2.6 mph /  4.2 km/h 3.5 mph /  5.6 km/h 43 % 0.00 in /  0 mm
14:13 73.6 °F /  23.1 °C 50.3 °F /  10.2 °C 30.25 in /  1024.3 hPa North 2.6 mph /  4.2 km/h 3.5 mph /  5.6 km/h 44 % 0.00 in /  0 mm
14:18 73.5 °F /  23.1 °C 50.2 °F /  10.1 °C 30.25 in /  1024.3 hPa NNE 2.1 mph /  3.4 km/h 3.5 mph /  5.6 km/h 44 % 0.00 in /  0 mm
14:23 73.5 °F /  23.1 °C 50.2 °F /  10.1 °C 30.25 in /  1024.3 hPa NNE 0.3 mph /  0.5 km/h 1.2 mph /  1.9 km/h 44 % 0.00 in /  0 mm
14:28 73.6 °F /  23.1 °C 50.3 °F /  10.2 °C 30.25 in /  1024.3 hPa NE 0.4 mph /  0.6 km/h 1.2 mph /  1.9 km/h 44 % 0.00 in /  0 mm
14:33 73.5 °F /  23.1 °C 50.9 °F /  10.5 °C 30.25 in /  1024.3 hPa NNE 0.8 mph /  1.3 km/h 2.3 mph /  3.7 km/h 45 % 0.00 in /  0 mm
14:38 73.4 °F /  23 °C 50.2 °F /  10.1 °C 30.25 in /  1024.3 hPa NE 0.5 mph /  0.8 km/h 2.0 mph /  3.2 km/h 44 % 0.00 in /  0 mm
14:44 73.5 °F /  23.1 °C 50.9 °F /  10.5 °C 30.25 in /  1024.3 hPa Calm   1.2 mph /  1.9 km/h 45 % 0.00 in /  0 mm
14:49 73.4 °F /  23 °C 49.5 °F /  9.7 °C 30.25 in /  1024.3 hPa ENE 1.4 mph /  2.3 km/h 1.4 mph /  2.3 km/h 43 % 0.00 in /  0 mm
14:54 73.2 °F /  22.9 °C 50.6 °F /  10.3 °C 30.25 in /  1024.3 hPa NNE 0.3 mph /  0.5 km/h 2.3 mph /  3.7 km/h 45 % 0.00 in /  0 mm
14:59 73.0 °F /  22.8 °C 49.8 °F /  9.9 °C 30.25 in /  1024.3 hPa NNE 0.1 mph /  0.2 km/h 1.2 mph /  1.9 km/h 44 % 0.00 in /  0 mm
15:04 72.8 °F /  22.7 °C 49.6 °F /  9.8 °C 30.25 in /  1024.3 hPa NNE 0.6 mph /  1 km/h 2.3 mph /  3.7 km/h 44 % 0.00 in /  0 mm
15:09 72.7 °F /  22.6 °C 49.5 °F /  9.7 °C 30.25 in /  1024.3 hPa NNE 0.1 mph /  0.2 km/h 1.2 mph /  1.9 km/h 44 % 0.00 in /  0 mm
15:14 72.5 °F /  22.5 °C 49.3 °F /  9.6 °C 30.25 in /  1024.3 hPa NE 0.4 mph /  0.6 km/h 2.0 mph /  3.2 km/h 44 % 0.00 in /  0 mm
15:19 72.2 °F /  22.3 °C 49.1 °F /  9.5 °C 30.25 in /  1024.3 hPa NE 0.7 mph /  1.1 km/h 2.3 mph /  3.7 km/h 44 % 0.00 in /  0 mm
15:24 72.1 °F /  22.3 °C 48.4 °F /  9.1 °C 30.25 in /  1024.3 hPa NE 0.1 mph /  0.2 km/h 2.3 mph /  3.7 km/h 43 % 0.00 in /  0 mm
15:29 71.9 °F /  22.2 °C 49.4 °F /  9.7 °C 30.25 in /  1024.3 hPa NE 0.1 mph /  0.2 km/h 1.0 mph /  1.6 km/h 45 % 0.00 in /  0 mm
15:34 71.6 °F /  22 °C 49.1 °F /  9.5 °C 30.25 in /  1024.3 hPa NE 1.6 mph /  2.6 km/h 3.5 mph /  5.6 km/h 45 % 0.00 in /  0 mm
15:39 71.2 °F /  21.8 °C 49.9 °F /  9.9 °C 30.25 in /  1024.3 hPa NE 0.5 mph /  0.8 km/h 1.2 mph /  1.9 km/h 47 % 0.00 in /  0 mm
15:44 70.7 °F /  21.5 °C 49.5 °F /  9.7 °C 30.25 in /  1024.3 hPa Calm   2.3 mph /  3.7 km/h 47 % 0.00 in /  0 mm
15:49 70.3 °F /  21.3 °C 49.1 °F /  9.5 °C 30.25 in /  1024.3 hPa NE 1.8 mph /  2.9 km/h 2.0 mph /  3.2 km/h 47 % 0.00 in /  0 mm
15:54 70.0 °F /  21.1 °C 49.4 °F /  9.7 °C 30.25 in /  1024.3 hPa NE 0.2 mph /  0.3 km/h 1.2 mph /  1.9 km/h 48 % 0.00 in /  0 mm
15:59 69.7 °F /  20.9 °C 49.1 °F /  9.5 °C 30.25 in /  1024.3 hPa Calm     48 % 0.00 in /  0 mm
16:04 69.5 °F /  20.8 °C 47.8 °F /  8.8 °C 30.25 in /  1024.3 hPa NE 0.8 mph /  1.3 km/h 2.3 mph /  3.7 km/h 46 % 0.00 in /  0 mm
16:09 69.3 °F /  20.7 °C 47.6 °F /  8.7 °C 30.25 in /  1024.3 hPa ENE 1.0 mph /  1.6 km/h 3.5 mph /  5.6 km/h 46 % 0.00 in /  0 mm
16:14 69.1 °F /  20.6 °C 48.6 °F /  9.2 °C 30.26 in /  1024.6 hPa Calm   1.2 mph /  1.9 km/h 48 % 0.00 in /  0 mm
16:19 68.9 °F /  20.5 °C 48.9 °F /  9.4 °C 30.26 in /  1024.6 hPa Calm   2.3 mph /  3.7 km/h 49 % 0.00 in /  0 mm
16:24 68.8 °F /  20.4 °C 48.9 °F /  9.4 °C 30.26 in /  1024.6 hPa Calm   1.2 mph /  1.9 km/h 49 % 0.00 in /  0 mm
16:29 68.7 °F /  20.4 °C 49.3 °F /  9.6 °C 30.26 in /  1024.6 hPa Calm     50 % 0.00 in /  0 mm
16:33 68.6 °F /  20.3 °C 49.2 °F /  9.6 °C 30.26 in /  1024.6 hPa Calm     50 % 0.00 in /  0 mm
16:38 68.5 °F /  20.3 °C 48.6 °F /  9.2 °C 30.26 in /  1024.6 hPa ESE 0.3 mph /  0.5 km/h 1.2 mph /  1.9 km/h 49 % 0.00 in /  0 mm
16:43 68.3 °F /  20.2 °C 48.9 °F /  9.4 °C 30.27 in /  1024.9 hPa Calm     50 % 0.00 in /  0 mm
16:48 68.2 °F /  20.1 °C 50.4 °F /  10.2 °C 30.26 in /  1024.6 hPa Calm     53 % 0.00 in /  0 mm
16:54 68.0 °F /  20 °C 49.7 °F /  9.8 °C 30.27 in /  1024.9 hPa Calm     52 % 0.00 in /  0 mm
16:59 67.9 °F /  19.9 °C 49.6 °F /  9.8 °C 30.27 in /  1024.9 hPa Calm   1.2 mph /  1.9 km/h 52 % 0.00 in /  0 mm
17:04 67.9 °F /  19.9 °C 49.1 °F /  9.5 °C 30.27 in /  1024.9 hPa Calm   1.0 mph /  1.6 km/h 51 % 0.00 in /  0 mm
17:09 67.8 °F /  19.9 °C 50.0 °F /  10 °C 30.27 in /  1024.9 hPa Calm     53 % 0.00 in /  0 mm
17:14 67.7 °F /  19.8 °C 49.4 °F /  9.7 °C 30.27 in /  1024.9 hPa Calm     52 % 0.00 in /  0 mm
17:19 67.6 °F /  19.8 °C 48.8 °F /  9.3 °C 30.28 in /  1025.3 hPa SE 0.3 mph /  0.5 km/h 1.2 mph /  1.9 km/h 51 % 0.00 in /  0 mm
17:24 67.5 °F /  19.7 °C 49.3 °F /  9.6 °C 30.27 in /  1024.9 hPa Calm     52 % 0.00 in /  0 mm
17:29 67.4 °F /  19.7 °C 49.2 °F /  9.6 °C 30.28 in /  1025.3 hPa Calm     52 % 0.00 in /  0 mm
17:34 67.2 °F /  19.6 °C 49.0 °F /  9.4 °C 30.28 in /  1025.3 hPa Calm     52 % 0.00 in /  0 mm
17:39 67.1 °F /  19.5 °C 48.9 °F /  9.4 °C 30.28 in /  1025.3 hPa Calm   1.2 mph /  1.9 km/h 52 % 0.00 in /  0 mm
17:44 67.0 °F /  19.4 °C 49.8 °F /  9.9 °C 30.28 in /  1025.3 hPa Calm     54 % 0.00 in /  0 mm
17:49 66.8 °F /  19.3 °C 50.1 °F /  10.1 °C 30.28 in /  1025.3 hPa Calm     55 % 0.00 in /  0 mm
17:54 66.7 °F /  19.3 °C 50.5 °F /  10.3 °C 30.28 in /  1025.3 hPa Calm     56 % 0.00 in /  0 mm
17:59 66.5 °F /  19.2 °C 51.7 °F /  10.9 °C 30.28 in /  1025.3 hPa Calm     59 % 0.00 in /  0 mm
18:04 66.3 °F /  19.1 °C 52.4 °F /  11.3 °C 30.29 in /  1025.6 hPa Calm     61 % 0.00 in /  0 mm
18:10 66.1 °F /  18.9 °C 52.3 °F /  11.3 °C 30.29 in /  1025.6 hPa Calm     61 % 0.00 in /  0 mm
18:15 65.8 °F /  18.8 °C 52.4 °F /  11.3 °C 30.29 in /  1025.6 hPa Calm     62 % 0.00 in /  0 mm
18:20 65.6 °F /  18.7 °C 52.2 °F /  11.2 °C 30.29 in /  1025.6 hPa Calm     62 % 0.00 in /  0 mm
18:25 65.2 °F /  18.4 °C 52.7 °F /  11.5 °C 30.29 in /  1025.6 hPa SE 0.2 mph /  0.3 km/h 1.2 mph /  1.9 km/h 64 % 0.00 in /  0 mm
18:30 64.7 °F /  18.2 °C 52.2 °F /  11.2 °C 30.29 in /  1025.6 hPa SSE 1.9 mph /  3.1 km/h 3.5 mph /  5.6 km/h 64 % 0.00 in /  0 mm
18:35 64.3 °F /  17.9 °C 52.3 °F /  11.3 °C 30.29 in /  1025.6 hPa SSE 0.5 mph /  0.8 km/h 2.3 mph /  3.7 km/h 65 % 0.00 in /  0 mm
18:40 63.9 °F /  17.7 °C 52.7 °F /  11.5 °C 30.29 in /  1025.6 hPa SE 0.4 mph /  0.6 km/h 2.0 mph /  3.2 km/h 67 % 0.00 in /  0 mm
18:45 63.5 °F /  17.5 °C 52.3 °F /  11.3 °C 30.29 in /  1025.6 hPa SSE 0.8 mph /  1.3 km/h 3.5 mph /  5.6 km/h 67 % 0.00 in /  0 mm
18:50 63.3 °F /  17.4 °C 52.6 °F /  11.4 °C 30.30 in /  1026 hPa SE 0.1 mph /  0.2 km/h 1.2 mph /  1.9 km/h 68 % 0.00 in /  0 mm
18:55 63.1 °F /  17.3 °C 52.8 °F /  11.6 °C 30.30 in /  1026 hPa SE 1.1 mph /  1.8 km/h 3.5 mph /  5.6 km/h 69 % 0.00 in /  0 mm
19:00 62.8 °F /  17.1 °C 52.5 °F /  11.4 °C 30.30 in /  1026 hPa SE 0.5 mph /  0.8 km/h 2.3 mph /  3.7 km/h 69 % 0.00 in /  0 mm
19:05 62.6 °F /  17 °C 52.7 °F /  11.5 °C 30.30 in /  1026 hPa SE 1.9 mph /  3.1 km/h 3.5 mph /  5.6 km/h 70 % 0.00 in /  0 mm
19:10 62.3 °F /  16.8 °C 52.4 °F /  11.3 °C 30.30 in /  1026 hPa Calm   1.2 mph /  1.9 km/h 70 % 0.00 in /  0 mm
19:15 62.1 °F /  16.7 °C 52.6 °F /  11.4 °C 30.30 in /  1026 hPa Calm   1.2 mph /  1.9 km/h 71 % 0.00 in /  0 mm
19:20 61.8 °F /  16.6 °C 52.7 °F /  11.5 °C 30.31 in /  1026.3 hPa SE 1.7 mph /  2.7 km/h 3.5 mph /  5.6 km/h 72 % 0.00 in /  0 mm
19:25 61.5 °F /  16.4 °C 52.4 °F /  11.3 °C 30.31 in /  1026.3 hPa SE 0.4 mph /  0.6 km/h 1.2 mph /  1.9 km/h 72 % 0.00 in /  0 mm
19:30 61.3 °F /  16.3 °C 52.6 °F /  11.4 °C 30.31 in /  1026.3 hPa SE 1.2 mph /  1.9 km/h 3.5 mph /  5.6 km/h 73 % 0.00 in /  0 mm
19:35 61.0 °F /  16.1 °C 52.3 °F /  11.3 °C 30.31 in /  1026.3 hPa SE 0.7 mph /  1.1 km/h 2.3 mph /  3.7 km/h 73 % 0.00 in /  0 mm
19:40 60.8 °F /  16 °C 52.1 °F /  11.2 °C 30.31 in /  1026.3 hPa SE 0.6 mph /  1 km/h 3.5 mph /  5.6 km/h 73 % 0.00 in /  0 mm
19:45 60.6 °F /  15.9 °C 51.9 °F /  11.1 °C 30.32 in /  1026.6 hPa SE 0.6 mph /  1 km/h 3.5 mph /  5.6 km/h 73 % 0.00 in /  0 mm
19:50 60.5 °F /  15.8 °C 51.8 °F /  11 °C 30.32 in /  1026.6 hPa Calm     73 % 0.00 in /  0 mm
19:55 60.4 °F /  15.8 °C 52.1 °F /  11.2 °C 30.32 in /  1026.6 hPa SE 0.2 mph /  0.3 km/h 1.0 mph /  1.6 km/h 74 % 0.00 in /  0 mm
20:00 60.3 °F /  15.7 °C 52.0 °F /  11.1 °C 30.32 in /  1026.6 hPa Calm     74 % 0.00 in /  0 mm
20:05 60.1 °F /  15.6 °C 52.1 °F /  11.2 °C 30.32 in /  1026.6 hPa Calm   1.2 mph /  1.9 km/h 75 % 0.00 in /  0 mm
20:10 60.0 °F /  15.6 °C 52.1 °F /  11.2 °C 30.32 in /  1026.6 hPa Calm     75 % 0.00 in /  0 mm
20:15 59.9 °F /  15.5 °C 52.0 °F /  11.1 °C 30.32 in /  1026.6 hPa Calm     75 % 0.00 in /  0 mm
20:20 59.8 °F /  15.4 °C 51.9 °F /  11.1 °C 30.33 in /  1027 hPa Calm   1.2 mph /  1.9 km/h 75 % 0.00 in /  0 mm
20:25 59.5 °F /  15.3 °C 51.9 °F /  11.1 °C 30.33 in /  1027 hPa Calm   1.2 mph /  1.9 km/h 76 % 0.00 in /  0 mm
20:30 59.4 °F /  15.2 °C 51.8 °F /  11 °C 30.33 in /  1027 hPa SE 0.2 mph /  0.3 km/h 1.2 mph /  1.9 km/h 76 % 0.00 in /  0 mm
20:35 59.3 °F /  15.2 °C 51.7 °F /  10.9 °C 30.33 in /  1027 hPa Calm     76 % 0.00 in /  0 mm
20:38 59.3 °F /  15.2 °C 51.7 °F /  10.9 °C 30.33 in /  1027 hPa Calm     76 % 0.00 in /  0 mm
20:43 59.2 °F /  15.1 °C 51.6 °F /  10.9 °C 30.33 in /  1027 hPa Calm   1.2 mph /  1.9 km/h 76 % 0.00 in /  0 mm
20:48 59.0 °F /  15 °C 51.4 °F /  10.8 °C 30.34 in /  1027.3 hPa SE 0.1 mph /  0.2 km/h 1.2 mph /  1.9 km/h 76 % 0.00 in /  0 mm
20:53 58.9 °F /  14.9 °C 51.3 °F /  10.7 °C 30.34 in /  1027.3 hPa SE 0.3 mph /  0.5 km/h 1.2 mph /  1.9 km/h 76 % 0.00 in /  0 mm
20:58 58.7 °F /  14.8 °C 51.2 °F /  10.7 °C 30.34 in /  1027.3 hPa SE 0.3 mph /  0.5 km/h 1.2 mph /  1.9 km/h 76 % 0.00 in /  0 mm
21:03 58.5 °F /  14.7 °C 51.3 °F /  10.7 °C 30.34 in /  1027.3 hPa Calm   1.2 mph /  1.9 km/h 77 % 0.00 in /  0 mm
21:08 58.2 °F /  14.6 °C 51.0 °F /  10.6 °C 30.34 in /  1027.3 hPa Calm   1.2 mph /  1.9 km/h 77 % 0.00 in /  0 mm
21:13 58.0 °F /  14.4 °C 51.2 °F /  10.7 °C 30.35 in /  1027.7 hPa Calm   1.2 mph /  1.9 km/h 78 % 0.00 in /  0 mm
21:18 57.8 °F /  14.3 °C 50.6 °F /  10.3 °C 30.35 in /  1027.7 hPa SE 0.1 mph /  0.2 km/h   77 % 0.00 in /  0 mm
21:23 57.7 °F /  14.3 °C 50.9 °F /  10.5 °C 30.35 in /  1027.7 hPa Calm     78 % 0.00 in /  0 mm
21:28 57.4 °F /  14.1 °C 50.6 °F /  10.3 °C 30.35 in /  1027.7 hPa Calm     78 % 0.00 in /  0 mm
21:33 57.2 °F /  14 °C 50.7 °F /  10.4 °C 30.35 in /  1027.7 hPa SE 0.4 mph /  0.6 km/h 1.0 mph /  1.6 km/h 79 % 0.00 in /  0 mm
21:38 57.1 °F /  13.9 °C 51.0 °F /  10.6 °C 30.35 in /  1027.7 hPa SE 0.1 mph /  0.2 km/h 1.0 mph /  1.6 km/h 80 % 0.00 in /  0 mm
21:44 56.9 °F /  13.8 °C 50.8 °F /  10.4 °C 30.35 in /  1027.7 hPa SE 0.1 mph /  0.2 km/h 1.2 mph /  1.9 km/h 80 % 0.00 in /  0 mm
21:49 56.7 °F /  13.7 °C 50.6 °F /  10.3 °C 30.35 in /  1027.7 hPa SE 0.1 mph /  0.2 km/h 1.2 mph /  1.9 km/h 80 % 0.00 in /  0 mm
21:54 56.6 °F /  13.7 °C 50.8 °F /  10.4 °C 30.36 in /  1028 hPa SE 0.4 mph /  0.6 km/h 1.2 mph /  1.9 km/h 81 % 0.00 in /  0 mm
21:59 56.4 °F /  13.6 °C 50.6 °F /  10.3 °C 30.36 in /  1028 hPa SE 0.1 mph /  0.2 km/h 1.0 mph /  1.6 km/h 81 % 0.00 in /  0 mm
22:04 56.2 °F /  13.4 °C 50.4 °F /  10.2 °C 30.36 in /  1028 hPa Calm   1.2 mph /  1.9 km/h 81 % 0.00 in /  0 mm
22:09 56.1 °F /  13.4 °C 50.3 °F /  10.2 °C 30.36 in /  1028 hPa Calm     81 % 0.00 in /  0 mm
22:14 56.0 °F /  13.3 °C 50.6 °F /  10.3 °C 30.36 in /  1028 hPa SE 0.1 mph /  0.2 km/h 1.2 mph /  1.9 km/h 82 % 0.00 in /  0 mm
22:19 55.9 °F /  13.3 °C 50.5 °F /  10.3 °C 30.37 in /  1028.3 hPa Calm     82 % 0.00 in /  0 mm
22:24 55.8 °F /  13.2 °C 50.7 °F /  10.4 °C 30.38 in /  1028.7 hPa SE 0.1 mph /  0.2 km/h   83 % 0.00 in /  0 mm
22:29 55.7 °F /  13.2 °C 50.6 °F /  10.3 °C 30.38 in /  1028.7 hPa SE 0.1 mph /  0.2 km/h 1.2 mph /  1.9 km/h 83 % 0.00 in /  0 mm
22:34 55.6 °F /  13.1 °C 50.5 °F /  10.3 °C 30.38 in /  1028.7 hPa Calm     83 % 0.00 in /  0 mm
22:39 55.5 °F /  13.1 °C 50.7 °F /  10.4 °C 30.38 in /  1028.7 hPa Calm     84 % 0.00 in /  0 mm
22:44 55.4 °F /  13 °C 50.6 °F /  10.3 °C 30.38 in /  1028.7 hPa Calm     84 % 0.00 in /  0 mm
22:49 55.3 °F /  12.9 °C 50.5 °F /  10.3 °C 30.38 in /  1028.7 hPa Calm   1.2 mph /  1.9 km/h 84 % 0.00 in /  0 mm
22:54 55.3 °F /  12.9 °C 50.5 °F /  10.3 °C 30.38 in /  1028.7 hPa Calm     84 % 0.00 in /  0 mm
22:59 55.2 °F /  12.9 °C 50.4 °F /  10.2 °C 30.38 in /  1028.7 hPa Calm     84 % 0.00 in /  0 mm
23:05 55.1 °F /  12.8 °C 50.4 °F /  10.2 °C 30.38 in /  1028.7 hPa Calm     84 % 0.00 in /  0 mm
23:10 55.0 °F /  12.8 °C 50.6 °F /  10.3 °C 30.38 in /  1028.7 hPa SE 0.3 mph /  0.5 km/h 1.2 mph /  1.9 km/h 85 % 0.00 in /  0 mm
23:17 55.0 °F /  12.8 °C 50.6 °F /  10.3 °C 30.38 in /  1028.7 hPa Calm   1.2 mph /  1.9 km/h 85 % 0.00 in /  0 mm
23:21 54.9 °F /  12.7 °C 50.5 °F /  10.3 °C 30.38 in /  1028.7 hPa Calm     85 % 0.00 in /  0 mm
23:25 54.8 °F /  12.7 °C 50.4 °F /  10.2 °C 30.38 in /  1028.7 hPa Calm     85 % 0.00 in /  0 mm
23:27 54.8 °F /  12.7 °C 50.4 °F /  10.2 °C 30.38 in /  1028.7 hPa Calm     85 % 0.00 in /  0 mm
23:30 54.7 °F /  12.6 °C 50.3 °F /  10.2 °C 30.38 in /  1028.7 hPa Calm     85 % 0.00 in /  0 mm
23:40 54.5 °F /  12.5 °C 50.1 °F /  10.1 °C 30.38 in /  1028.7 hPa Calm     85 % 0.00 in /  0 mm
23:45 54.4 °F /  12.4 °C 50.0 °F /  10 °C 30.38 in /  1028.7 hPa Calm     85 % 0.00 in /  0 mm
23:50 54.3 °F /  12.4 °C 50.2 °F /  10.1 °C 30.38 in /  1028.7 hPa Calm     86 % 0.00 in /  0 mm
23:55 54.2 °F /  12.3 °C 50.1 °F /  10.1 °C 30.38 in /  1028.7 hPa Calm     86 % 0.00 in /  0 mm
Crab Meadow Weather
Compliments of Weather Underground - 3 mb

Script developed by  Jim McMurry - jmcmurry@mwt.net Adapted for the template by  Wim van der Kuil - Leuven-Template.eu

Heat Index: The heat index combines air temperature and dew point in an attempt to determine the human-perceived equivalent temperature - how hot it feels. The human body normally cools itself by sweating, which evaporates and carries heat away from the body. However, when the relative humidity is high the evaporation rate is reduced, so heat is removed from the body at a lower rate causing it to retain more heat than it would in dry air.